Location: Rounton
(54.4000°N, 1.3500°W)
Time: 04:39:00
(UTC+00:00)

A-11 Canister half - Pass Details

Date: 04 December 2021
Orbit: 1524 x 1684 km, 47.3° (Epoch: 17 January)

Event Time Altitude Azimuth Distance (km) Brightness Sun altitude
Exits shadow 01:23:44 17° 93° (E) 3,413 10.9 -53.8°
Drops below altitude 10° 01:25:46 10° 85° (E) 3,912 11.3 -53.6°
Sets 01:29:18 0° 77° (ENE) 4,883 12.0 -53.3°
